Location: Unspecified
(45.6669°N, 0.0000°E)
Time: 10:58:49
(UTC+00:00)

ISS - Visible Passes

Search period start: 19 May 2019 00:00
Search period end: 29 May 2019 00:00
Orbit: 408 x 410 km, 51.6° (Epoch: 19 May)

Date Brightness Start Highest point End Pass type
(mag) Time Alt. Az. Time Alt. Az. Time Alt. Az.
19 May -1.7 00:05:08 10° WNW 00:08:03 28° N 00:10:58 10° ENE visible
19 May -3.0 01:41:50 10° WNW 01:45:05 52° NNE 01:48:20 10° E visible
19 May -3.0 03:18:37 10° WNW 03:21:32 29° SW 03:24:28 10° SSE visible
19 May -2.7 20:00:52 10° SSW 20:03:36 24° SE 20:06:20 10° E visible
19 May -3.2 21:36:42 10° WSW 21:39:58 59° NNW 21:43:15 10° ENE visible
19 May -1.7 23:14:02 10° WNW 23:16:58 28° N 23:19:53 10° ENE visible
20 May -2.4 00:50:57 10° NW 00:54:05 38° NNE 00:57:13 10° E visible
20 May -3.7 02:27:32 10° WNW 02:30:44 50° SW 02:33:57 10° SE visible
20 May -3.9 20:45:43 10° WSW 20:49:01 89° SSE 20:52:20 10° ENE visible
20 May -1.9 22:22:53 10° WNW 22:25:53 31° N 22:28:53 10° NE visible
21 May -1.9 00:00:01 10° NW 00:03:02 31° N 00:04:27 22° NE visible
21 May -1.3 01:36:33 10° WNW 01:37:04 14° WNW 01:37:04 14° WNW visible
21 May -2.2 21:31:42 10° W 21:34:48 37° NNW 21:37:56 10° NE visible
21 May -1.7 23:09:00 10° WNW 23:11:56 28° N 23:14:11 14° ENE visible
22 May -1.7 00:45:37 10° WNW 00:46:52 21° NW 00:46:52 21° NW visible
22 May -2.8 20:40:32 10° W 20:43:46 49° NNW 20:47:00 10° NE visible
22 May -1.7 22:17:55 10° WNW 22:20:49 27° N 22:23:44 10° ENE visible
22 May -2.3 23:54:42 10° NW 23:57:10 37° NNW 23:57:10 37° NNW visible
23 May -1.7 21:26:45 10° WNW 21:29:41 29° N 21:32:39 10° ENE visible
23 May -2.2 23:03:45 10° NW 23:06:50 34° NNE 23:07:39 30° NE visible
24 May -0.9 00:40:18 10° WNW 00:40:21 10° WNW 00:40:21 10° WNW visible
24 May -2.0 20:35:32 10° W 20:38:34 33° NNW 20:41:38 10° NE visible
24 May -1.9 22:12:45 10° NW 22:15:43 29° N 22:18:11 13° ENE visible
24 May -1.9 23:49:19 10° WNW 23:50:53 26° WNW 23:50:53 26° WNW visible
25 May -1.7 21:21:39 10° WNW 21:24:34 28° N 21:27:29 10° ENE visible
25 May -3.1 22:58:21 10° WNW 23:01:28 52° N 23:01:28 52° N visible
26 May -1.7 20:30:29 10° WNW 20:33:24 28° N 20:36:20 10° ENE visible
26 May -2.5 22:07:22 10° NW 22:10:31 38° NNE 22:12:04 23° ENE visible
26 May -1.4 23:43:57 10° WNW 23:44:47 16° WNW 23:44:47 16° WNW visible
27 May -2.1 21:16:22 10° NW 21:19:23 31° N 21:22:23 10° ENE visible
27 May -3.1 22:52:54 10° WNW 22:55:24 48° WNW 22:55:24 48° WNW visible
28 May -1.9 20:25:16 10° WNW 20:28:12 28° N 20:31:08 10° ENE visible
28 May -3.5 22:01:54 10° WNW 22:05:11 63° NNE 22:06:03 42° E visible
